Voltar ao catálogo

ELECTRON KICK STAGE R/B

AtivoPO
NORAD 64692·ROCKET BODY·🇺🇸 United States

Lançado Jun 28, 2025 de Rocket Lab Launch Complex 1

Loading…

Próximas Passagens (próximas 24 horas)

TLE

AtualizadoSource: Space-Track

Época: Sep 14, 2026, 17:11 UTC

1 64692U 25140B   26257.71646431  .00001070  00000-0  16781-3 0  9997
2 64692  96.0116 355.3768 0012191 253.6339 106.3534 14.73837251 65277

Acompanhe ELECTRON KICK STAGE R/B em tempo real com AllMySat

Download on the App Store